Terminal Aerodrome Forecast
Issued by NWS Blacksburg, VA

Home | Current Version | Previous Version | Text Only | Print | Product List | Glossary On
Versions: 1 2 3 4 5 6 7 8 9 10 11 12 13 14 15 16 17 18 19 20 21 22 23 24 25 26 27 28 29 30 31 32 33 34 35 36 37 38 39 40 41 42 43 44 45 46 47 48 49 50
000
FTUS41 KRNK 292340
TAFROA
TAF
KROA 292340Z 3000/3024 13006KT P6SM BKN050
     FM300500 VRB03KT P6SM SCT250
     FM301400 27005KT P6SM BKN200
     FM301700 31008KT P6SM BKN100
     FM302000 31009G19KT P6SM BKN250=

USA.gov is the U.S. government's official web portal to all federal, state and local government web resources and services.